Location: Rowland
(34.5359°N, 79.2929°W)
Time: 14:29:32
(UTC+00:00)

Transit 4A - Pass Details

Date: 03 October 2022
Orbit: 871 x 972 km, 66.8° (Epoch: 29 November)

Event Time Altitude Azimuth Distance (km) Brightness Sun altitude
Rises 01:38:30 0° 169° (SSE) 3,622 - -33.0°
Reaches altitude 10° 01:41:37 10° 154° (SSE) 2,667 - -33.6°
Maximum altitude 01:46:15 22° 106° (ESE) 1,908 - -34.5°
Drops below altitude 10° 01:50:50 10° 57° (ENE) 2,627 - -35.4°
Sets 01:53:51 0° 43° (NE) 3,555 - -36.0°
